[[{"header":{"parameterUnit":"m.s-1","parameterCategory":1,"la1":30.2991,"la2":30.254,"lo1":-89.0895,"lo2":-89.0444,"dy":0.0017,"dx":0.0017,"nx":28,"ny":28,"refTime":"2023-09-14T21:00:00:Z","depth":0,"parameterNumber":2,"parameterNumberName":"U-component_of_WINDS"},"data":[0,0,0,0,0,0,0,0,0,0,0,0,0,0,0,0,0,0,0,0,0,0,0,0,0,0,0,0,0,0,0,0,0,0,0,0,0,0,0,0,0,0,0,0,0,0,0,0,0,0,0,0,0,0,0,0,0,0,-0.9217,-0.9217,0,-0.9264,-0.9265,-0.9265,-0.9244,-0.9243,-0.9242,-0.9241,-0.9289,-0.9292,-0.9294,0,0,0,0,0,0,0,0,0,0,0,0,0,-0.9107,-0.9109,-0.9217,-0.9217,-0.9218,-0.9264,-0.9265,-0.9266,-0.9244,-0.9243,-0.9242,-0.924,-0.9289,-0.9292,-0.9294,0,0,0,0,0,0,0,0,0,0,0,0,0,-0.9155,-0.911,-0.9217,-0.9213,-0.9213,-0.9264,-0.9265,-0.9266,-0.9245,-0.9243,-0.9241,-0.924,-0.9288,-0.9291,-0.9295,-0.9352,0,0,-0.9306,-0.9307,0,0,0,0,0,0,0,0,-0.9152,-0.9159,-0.9213,-0.9213,-0.9214,-0.9247,-0.9244,-0.9295,-0.9245,-0.9233,-0.9241,-0.9239,-0.9277,-0.9281,-0.9294,-0.9355,-0.9357,-0.9306,-0.9308,-0.931,-0.9311,0,0,0,0,0,0,0,-0.9149,-0.9157,-0.9236,-0.9214,-0.9214,-0.9209,-0.9214,-0.9254,-0.9264,-0.9234,-0.9232,-0.9238,-0.9276,-0.929,-0.9295,-0.9357,-0.9306,-0.9309,-0.9311,-0.9313,-0.9466,-0.9468,0,0,0,0,0,0,-0.9146,-0.9154,-0.9234,-0.9237,-0.9178,-0.9212,-0.9218,-0.9238,-0.9264,-0.9266,-0.924,-0.9237,-0.9285,-0.9291,-0.9296,-0.9364,-0.931,-0.9313,-0.9315,-0.9464,-0.9467,-0.9469,0,0,0,0,0,0,-0.9143,-0.9153,-0.9232,-0.9195,-0.9205,-0.9216,-0.9239,-0.924,-0.9254,-0.9268,-0.927,-0.9252,-0.9284,-0.9291,-0.9338,-0.9366,-0.9315,-0.9318,-0.9462,-0.9465,-0.9468,-0.9502,0,0,0,0,0,0,-0.914,-0.9152,-0.9174,-0.9196,-0.9207,-0.9274,-0.9241,-0.9242,-0.926,-0.9257,-0.928,-0.9282,-0.9283,-0.9333,-0.9342,-0.937,-0.9321,-0.946,-0.9463,-0.9467,-0.9498,-0.9505,-0.9512,0,0,0,0,0,-0.9136,-0.9182,-0.9176,-0.9185,-0.9235,-0.9275,-0.9282,-0.9282,-0.9262,-0.9284,-0.9293,-0.9281,-0.9362,-0.9338,-0.9348,-0.9377,-0.9458,-0.9462,-0.9466,-0.9495,-0.9504,-0.9511,0,0,0,0,0,0,-0.9164,-0.9185,-0.9178,-0.9232,-0.9252,-0.9272,-0.93,-0.9291,-0.9317,-0.9313,-0.9312,-0.9318,-0.9366,-0.9376,-0.935,-0.9434,-0.9407,-0.9413,-0.9425,-0.9434,-0.944,-0.9436,-0.9324,0,0,0,0,0,-0.9177,-0.9208,-0.9224,-0.9271,-0.9281,-0.9289,-0.9306,-0.9304,-0.9325,-0.9333,-0.9346,-0.9366,-0.9396,-0.9415,-0.9443,-0.95,-0.9504,-0.9525,-0.9531,-0.9537,-0.9542,-0.9572,-0.9581,-0.9483,-0.9483,-0.9483,0,0,-0.9203,-0.9218,-0.9238,-0.9277,-0.9292,-0.9324,-0.9296,-0.9331,-0.9354,-0.9339,-0.9383,-0.9393,-0.9416,-0.9467,-0.9491,-0.9477,-0.957,-0.9542,-0.9547,-0.9549,-0.9577,-0.9586,-0.9594,-0.9486,-0.9485,-0.9485,0,0,-0.9266,-0.9281,-0.9321,-0.9337,-0.936,-0.9364,-0.9374,-0.9395,-0.94,-0.9445,-0.9434,-0.9462,-0.9513,-0.9529,-0.9544,-0.9613,-0.9602,-0.9622,-0.9657,-0.9685,-0.9693,-0.97,-0.9724,-0.9732,-0.9627,-0.9627,-0.9628,0,-0.9296,-0.9343,-0.9342,-0.9378,-0.9395,-0.9382,-0.9422,-0.9437,-0.9468,-0.948,-0.9465,-0.9529,-0.9543,-0.9597,-0.9614,-0.9627,-0.9637,-0.9619,-0.9692,-0.9699,-0.9705,-0.9728,-0.9737,-0.963,-0.9629,-0.9629,-0.9629,0,-0.9378,-0.9411,-0.944,-0.947,-0.9491,-0.9528,-0.9533,-0.9554,-0.955,-0.9556,-0.9601,-0.9618,-0.9649,-0.9662,-0.9659,-0.9716,-0.9706,-0.9692,-0.9665,-0.9717,-0.9738,-0.9746,-0.9633,-0.9632,-0.9631,-0.9631,0,0,-0.946,-0.9489,-0.95,-0.9513,-0.9537,-0.9562,-0.9599,-0.9629,-0.9646,-0.9668,-0.9698,-0.9742,-0.9728,-0.9745,-0.9744,-0.9769,-0.9821,-0.9751,-0.9751,-0.9763,-0.9883,-0.9894,-0.9904,-0.9814,-0.9816,-0.9817,-0.9881,0,-0.9525,-0.9589,-0.9589,-0.9649,-0.9679,-0.9666,-0.9698,-0.9716,-0.9723,-0.9749,-0.9756,-0.9786,-0.9767,-0.9777,-0.9801,-0.9809,-0.9845,-0.9805,-0.9842,-0.9843,-0.9836,-0.9915,-0.9926,-0.9986,-0.9889,-0.9891,-0.9892,0,-0.9609,-0.9633,-0.9695,-0.9714,-0.9727,-0.9756,-0.9782,-0.9808,-0.9828,-0.9831,-0.9849,-0.9844,-0.988,-0.9852,-0.9903,-0.9875,-0.989,-0.9897,-0.9899,-0.9902,-0.987,-0.9919,-1.0005,-1.0013,-0.9905,-0.9904,-0.9903,0,-0.9662,-0.971,-0.9753,-0.9765,-0.9788,-0.9808,-0.9819,-0.9837,-0.9855,-0.9878,-0.989,-0.9917,-0.9932,-0.9953,-0.9955,-0.9935,-1.0005,-0.9978,-1.0008,-1.0008,-1.0023,-1.0022,-1.0112,-1.0034,-1.0034,-1.0034,-1.0034,0,-0.9734,-0.9772,-0.9777,-0.9804,-0.9846,-0.9845,-0.9887,-0.9896,-0.9912,-0.994,-0.9931,-0.9957,-0.9958,-0.9984,-0.9986,-1.0027,-1.0034,-1.0037,-1.0036,-1.0037,-1.0037,-1.0047,-1.0042,-1.0036,-1.0036,-1.0035,-1.0035,0,-0.98,-0.9805,-0.9851,-0.9869,-0.9874,-0.9905,-0.992,-0.9945,-0.995,-0.9985,-0.9993,-1.0002,-1.0033,-1.0037,-1.0073,-1.0074,-1.0122,-1.0118,-1.0115,-1.0115,-1.0144,-1.0141,-1.0243,-1.0256,-1.0171,-1.0172,-1.0172,0,-0.9845,-0.9874,-0.9895,-0.9913,-0.9925,-0.9954,-0.9971,-0.9972,-0.999,-1.0015,-1.0037,-1.0066,-1.009,-1.0139,-1.0148,-1.0176,-1.0172,-1.0205,-1.0176,-1.0175,-1.0171,-1.0169,-1.0171,-1.0211,-1.0212,-1.0213,-1.0213,0,-0.9925,-0.9925,-0.9951,-0.9978,-0.9999,-1.002,-1.004,-1.0055,-1.0058,-1.0079,-1.011,-1.0129,-1.0165,-1.0194,-1.0221,-1.0231,-1.0223,-1.0222,-1.0231,-1.0231,-1.0228,-1.0229,-1.013,-1.022,-1.0219,-1.0219,-1.0219,-1.0218,-0.9981,-1.0006,-1.0024,-1.0053,-1.0068,-1.0087,-1.0111,-1.0119,-1.0145,-1.0174,-1.0173,-1.0207,-1.0225,-1.026,-1.0272,-1.0298,-1.0287,-1.0299,-1.0302,-1.0305,-1.0308,-1.0225,-1.0303,-1.0303,-1.0303,-1.0303,-1.0302,0,-1.0059,-1.007,-1.0097,-1.0125,-1.0147,-1.0137,-1.0158,-1.0177,-1.0207,-1.0225,-1.0249,-1.0284,-1.0312,-1.0323,-1.035,-1.0369,-1.0366,-1.0376,-1.0374,-1.0377,-1.0317,-1.0306,-1.0378,-1.0378,-1.0378,-1.0378,-1.0378,-1.0378,-1.0103,-1.0144,-1.0147,-1.0195,-1.0205,-1.0239,-1.0251,-1.0268,-1.0282,-1.0322,-1.0345,-1.0352,-1.0367,-1.0395,-1.042,-1.0422,-1.0432,-1.0445,-1.0445,-1.0389,-1.0381,-1.0374,-1.0364,-1.0447,-1.0447,-1.0503,-1.0504,-1.0504]},{"header":{"parameterUnit":"m.s-1","parameterCategory":1,"la1":30.2991,"la2":30.254,"lo1":-89.0895,"lo2":-89.0444,"dy":0.0017,"dx":0.0017,"nx":28,"ny":28,"refTime":"2023-09-14T21:00:00:Z","depth":0,"parameterNumber":3,"parameterNumberName":"V-component_of_WINDS"},"data":[0,0,0,0,0,0,0,0,0,0,0,0,0,0,0,0,0,0,0,0,0,0,0,0,0,0,0,0,0,0,0,0,0,0,0,0,0,0,0,0,0,0,0,0,0,0,0,0,0,0,0,0,0,0,0,0,0,0,-1.3508,-1.3508,0,-1.35,-1.35,-1.35,-1.3497,-1.3497,-1.3497,-1.3497,-1.3489,-1.3489,-1.3489,0,0,0,0,0,0,0,0,0,0,0,0,0,-1.3521,-1.3521,-1.3508,-1.3508,-1.3508,-1.35,-1.35,-1.35,-1.3497,-1.3497,-1.3497,-1.3497,-1.3489,-1.3489,-1.3489,0,0,0,0,0,0,0,0,0,0,0,0,0,-1.3514,-1.3521,-1.3508,-1.3505,-1.3505,-1.35,-1.35,-1.35,-1.3497,-1.3497,-1.3497,-1.3497,-1.3489,-1.3489,-1.3489,-1.3486,0,0,-1.3488,-1.3487,0,0,0,0,0,0,0,0,-1.3515,-1.3514,-1.3506,-1.3506,-1.3505,-1.3499,-1.3502,-1.3495,-1.3497,-1.35,-1.3497,-1.3497,-1.3493,-1.3492,-1.349,-1.3486,-1.3485,-1.3488,-1.3487,-1.3487,-1.3487,0,0,0,0,0,0,0,-1.3515,-1.3514,-1.3505,-1.3506,-1.3505,-1.3505,-1.3504,-1.35,-1.3496,-1.35,-1.3499,-1.3498,-1.3492,-1.3491,-1.349,-1.3485,-1.3488,-1.3487,-1.3487,-1.3487,-1.3477,-1.3477,0,0,0,0,0,0,-1.3516,-1.3515,-1.3505,-1.3505,-1.351,-1.3504,-1.3503,-1.3501,-1.3496,-1.3495,-1.3498,-1.3498,-1.3491,-1.3491,-1.349,-1.3486,-1.3487,-1.3487,-1.3487,-1.3477,-1.3477,-1.3477,0,0,0,0,0,0,-1.3516,-1.3515,-1.3506,-1.351,-1.3508,-1.3504,-1.3502,-1.3501,-1.35,-1.3495,-1.3495,-1.3498,-1.3491,-1.349,-1.3487,-1.3486,-1.3487,-1.3486,-1.3477,-1.3477,-1.3477,-1.3479,0,0,0,0,0,0,-1.3517,-1.3515,-1.3514,-1.351,-1.3508,-1.3503,-1.3502,-1.3501,-1.3499,-1.3499,-1.3494,-1.3494,-1.3491,-1.3487,-1.3486,-1.3485,-1.3486,-1.3477,-1.3477,-1.3477,-1.3479,-1.3479,-1.3479,0,0,0,0,0,-1.3517,-1.3515,-1.3514,-1.3513,-1.3507,-1.3503,-1.3502,-1.3499,-1.3499,-1.3498,-1.3495,-1.3494,-1.3486,-1.3487,-1.3486,-1.3485,-1.3478,-1.3477,-1.3477,-1.3479,-1.3479,-1.3479,0,0,0,0,0,0,-1.3521,-1.3515,-1.3514,-1.351,-1.3507,-1.3502,-1.3501,-1.3499,-1.3496,-1.3496,-1.3493,-1.3492,-1.3488,-1.3486,-1.3487,-1.3482,-1.3482,-1.3481,-1.3483,-1.3483,-1.3483,-1.3484,-1.3486,0,0,0,0,0,-1.3521,-1.3518,-1.3513,-1.3511,-1.3509,-1.3505,-1.3503,-1.3501,-1.3498,-1.3496,-1.3493,-1.349,-1.3487,-1.3485,-1.3482,-1.3478,-1.3477,-1.3477,-1.3477,-1.3477,-1.3477,-1.3474,-1.3474,-1.3477,-1.3477,-1.3477,0,0,-1.3522,-1.3518,-1.3516,-1.3511,-1.3508,-1.3505,-1.3504,-1.3501,-1.3498,-1.3496,-1.3492,-1.349,-1.3486,-1.3482,-1.3481,-1.3481,-1.3476,-1.3477,-1.3477,-1.3477,-1.3474,-1.3474,-1.3474,-1.3477,-1.3477,-1.3477,0,0,-1.3521,-1.3518,-1.3516,-1.3513,-1.3508,-1.3506,-1.3505,-1.35,-1.3498,-1.3495,-1.3492,-1.349,-1.3484,-1.3482,-1.3479,-1.3477,-1.3476,-1.3476,-1.3476,-1.3474,-1.3473,-1.3473,-1.3472,-1.3472,-1.3476,-1.3476,-1.3476,0,-1.3523,-1.3518,-1.3514,-1.3511,-1.3509,-1.3506,-1.3503,-1.3501,-1.3495,-1.3494,-1.3494,-1.3486,-1.3484,-1.3479,-1.3479,-1.3477,-1.3476,-1.3477,-1.3474,-1.3473,-1.3473,-1.3472,-1.3472,-1.3476,-1.3476,-1.3476,-1.3476,0,-1.3519,-1.3516,-1.3514,-1.3509,-1.3506,-1.3504,-1.35,-1.3497,-1.3496,-1.3493,-1.3489,-1.3485,-1.3481,-1.348,-1.3478,-1.3475,-1.3475,-1.3474,-1.3474,-1.3473,-1.3472,-1.3471,-1.3476,-1.3476,-1.3476,-1.3476,0,0,-1.3521,-1.3514,-1.3513,-1.351,-1.3505,-1.3502,-1.3499,-1.3495,-1.3493,-1.3489,-1.3486,-1.3481,-1.3481,-1.3478,-1.3476,-1.3474,-1.3472,-1.3474,-1.3473,-1.3473,-1.3467,-1.3468,-1.3467,-1.3471,-1.3471,-1.3471,-1.3467,0,-1.352,-1.3514,-1.351,-1.3505,-1.3502,-1.3499,-1.3496,-1.3492,-1.349,-1.3486,-1.3484,-1.348,-1.3479,-1.3478,-1.3476,-1.3473,-1.3471,-1.3473,-1.3468,-1.3468,-1.3469,-1.3467,-1.3467,-1.3464,-1.3467,-1.3467,-1.3467,0,-1.3517,-1.3513,-1.3508,-1.3502,-1.3501,-1.3498,-1.3494,-1.3491,-1.3486,-1.3485,-1.3481,-1.3479,-1.3476,-1.3476,-1.347,-1.3472,-1.347,-1.3468,-1.3468,-1.3467,-1.3467,-1.3465,-1.3463,-1.3463,-1.3466,-1.3466,-1.3466,0,-1.3519,-1.3512,-1.3508,-1.3506,-1.3499,-1.3497,-1.3495,-1.349,-1.3488,-1.3484,-1.3482,-1.3478,-1.3475,-1.3472,-1.3469,-1.3469,-1.3463,-1.3463,-1.3461,-1.3461,-1.346,-1.346,-1.3457,-1.3459,-1.3459,-1.3459,-1.3459,0,-1.3517,-1.3514,-1.3508,-1.3506,-1.3502,-1.3498,-1.3494,-1.3491,-1.3487,-1.3484,-1.3481,-1.3478,-1.3474,-1.347,-1.3468,-1.3463,-1.3463,-1.3461,-1.346,-1.3461,-1.3461,-1.3459,-1.3459,-1.3459,-1.3459,-1.3459,-1.3459,0,-1.3518,-1.3514,-1.3509,-1.3503,-1.3502,-1.3499,-1.3494,-1.3491,-1.3488,-1.3484,-1.3483,-1.3478,-1.3473,-1.347,-1.3464,-1.3462,-1.3458,-1.3457,-1.3459,-1.3459,-1.3457,-1.3457,-1.3452,-1.3451,-1.3454,-1.3454,-1.3454,0,-1.3517,-1.3515,-1.3508,-1.3506,-1.3503,-1.3499,-1.3496,-1.3492,-1.3489,-1.3483,-1.3481,-1.3476,-1.3472,-1.3465,-1.3462,-1.3457,-1.3456,-1.3455,-1.3455,-1.3456,-1.3456,-1.3456,-1.3455,-1.3455,-1.3455,-1.3455,-1.3455,0,-1.3516,-1.3514,-1.351,-1.3505,-1.3501,-1.3497,-1.3493,-1.3491,-1.3487,-1.3483,-1.3478,-1.3475,-1.3469,-1.3464,-1.3459,-1.3456,-1.3455,-1.3454,-1.3454,-1.3454,-1.3455,-1.3454,-1.3458,-1.3454,-1.3454,-1.3454,-1.3454,-1.3454,-1.3516,-1.3513,-1.3508,-1.3503,-1.35,-1.3496,-1.3493,-1.3489,-1.3485,-1.3479,-1.3477,-1.3472,-1.3467,-1.346,-1.3457,-1.3453,-1.3453,-1.3452,-1.3452,-1.3451,-1.3451,-1.3456,-1.3452,-1.3452,-1.3452,-1.3452,-1.3452,0,-1.3514,-1.3511,-1.3506,-1.35,-1.3497,-1.3495,-1.349,-1.3487,-1.3482,-1.3478,-1.3474,-1.3468,-1.3463,-1.3459,-1.3454,-1.3451,-1.345,-1.345,-1.345,-1.3449,-1.3452,-1.3453,-1.3451,-1.3451,-1.3451,-1.3451,-1.3451,-1.3451,-1.3513,-1.3508,-1.3505,-1.3498,-1.3495,-1.349,-1.3487,-1.3483,-1.3479,-1.3473,-1.3469,-1.3466,-1.3461,-1.3456,-1.3451,-1.345,-1.3448,-1.3448,-1.3446,-1.3449,-1.3449,-1.3449,-1.345,-1.3447,-1.3447,-1.3444,-1.3444,-1.3444]}]]